User: anonymous   Login
Location: Most
(50.5133°N, 13.6207°E)
Time: 15:58:46
(UTC+01:00)
Language:

Oscar 11 - Orbit

View from above orbital plane
View from above orbital plane
View from above satellite
View from above satellite

Ground track
Ground track

The orbit data is extracted from the following two-line orbital elements,

1 14781U 84021B   22336.77003926  .00000799  00000-0  10198-3 0  9993
2 14781  97.6357 316.7234 0009569 122.1442 238.0703 14.84002784 65003
Epoch (UTC): 02 December 2022 18:28:51
Eccentricity: 0.0009569
inclination: 97.6357°
perigee height: 610 km
apogee height: 623 km
right ascension of ascending node: 316.7234°
argument of perigee: 122.1442°
revolutions per day: 14.84002784
mean anomaly at epoch: 238.0703°
orbit number at epoch: 6500

The dashed part of the orbit path shows where the satellite is in the earth's shadow,  

DLR